TimeIST,TemperatureF,Dew PointF,Humidity,Sea Level PressureIn,VisibilityMPH,Wind Direction,Wind SpeedMPH,Gust SpeedMPH,PrecipitationIn,Events,Conditions,WindDirDegrees,DateUTC
2:00 AM,56,45,58,,,NNE,3.5,,,,,20,2013-02-08 00:00:00
5:50 AM,57.2,46.4,67,29.95,-9999.0,NNE,10.4,-,N/A,,Clear,30,2013-02-08 03:50:00
6:20 AM,55.4,46.4,72,29.95,-9999.0,NNE,9.2,-,N/A,,Clear,30,2013-02-08 04:20:00
6:50 AM,55.4,46.4,72,29.98,6.2,NE,8.1,-,N/A,,Scattered Clouds,40,2013-02-08 04:50:00
7:20 AM,55.4,46.4,72,29.98,6.2,NNE,9.2,-,N/A,,Scattered Clouds,30,2013-02-08 05:20:00
7:50 AM,57.2,46.4,67,29.98,6.2,NNE,10.4,-,N/A,,Scattered Clouds,20,2013-02-08 05:50:00
8:00 AM,58,45,52,,,NNE,4.6,,,,,20,2013-02-08 06:00:00
8:20 AM,57.2,46.4,67,29.95,6.2,NNE,9.2,-,N/A,,Scattered Clouds,30,2013-02-08 06:20:00
8:50 AM,60.8,48.2,63,29.98,6.2,North,12.7,-,N/A,,Partly Cloudy,10,2013-02-08 06:50:00
9:20 AM,62.6,48.2,59,29.95,6.2,NNE,13.8,-,N/A,,Scattered Clouds,20,2013-02-08 07:20:00
9:50 AM,66.2,46.4,49,29.95,6.2,NNE,11.5,-,N/A,,Mostly Cloudy,30,2013-02-08 07:50:00
10:20 AM,68.0,48.2,49,29.98,6.2,NE,11.5,-,N/A,,Mostly Cloudy,40,2013-02-08 08:20:00
10:50 AM,68.0,48.2,49,29.98,6.2,NNE,12.7,-,N/A,,Scattered Clouds,30,2013-02-08 08:50:00
11:20 AM,69.8,46.4,43,29.95,6.2,NNE,10.4,-,N/A,,Scattered Clouds,30,2013-02-08 09:20:00
11:50 AM,73.4,46.4,38,29.95,6.2,NNE,9.2,-,N/A,,Partly Cloudy,30,2013-02-08 09:50:00
12:20 PM,73.4,46.4,38,29.92,6.2,NE,8.1,-,N/A,,Scattered Clouds,40,2013-02-08 10:20:00
12:50 PM,73.4,44.6,36,29.92,6.2,NE,8.1,-,N/A,,Scattered Clouds,40,2013-02-08 10:50:00
1:20 PM,75.2,44.6,34,29.92,6.2,NE,5.8,-,N/A,,Scattered Clouds,40,2013-02-08 11:20:00
1:50 PM,75.2,44.6,34,29.89,6.2,North,5.8,-,N/A,,Scattered Clouds,10,2013-02-08 11:50:00
2:00 PM,77,45,21,,,ENE,3.5,,,,,70,2013-02-08 12:00:00
2:20 PM,77.0,44.6,32,29.89,6.2,Variable,2.3,-,N/A,,Partly Cloudy,0,2013-02-08 12:20:00
2:50 PM,78.8,41.0,26,29.89,6.2,South,3.5,-,N/A,,Partly Cloudy,190,2013-02-08 12:50:00
3:20 PM,77.0,39.2,26,29.89,6.2,SSE,4.6,-,N/A,,Partly Cloudy,150,2013-02-08 13:20:00
3:50 PM,77.0,41.0,28,29.89,-9999.0,SSE,3.5,-,N/A,,Clear,160,2013-02-08 13:50:00
4:20 PM,77.0,41.0,28,29.89,-9999.0,South,5.8,-,N/A,,Clear,190,2013-02-08 14:20:00
4:50 PM,77.0,39.2,26,29.89,-9999.0,SW,6.9,-,N/A,,Clear,220,2013-02-08 14:50:00
5:20 PM,75.2,39.2,27,29.89,-9999.0,SSW,6.9,-,N/A,,Clear,210,2013-02-08 15:20:00
5:50 PM,73.4,39.2,29,29.92,-9999.0,SW,4.6,-,N/A,,Clear,230,2013-02-08 15:50:00
6:20 PM,73.4,39.2,29,29.92,-9999.0,SW,4.6,-,N/A,,Clear,230,2013-02-08 16:20:00
6:50 PM,69.8,46.4,43,29.92,-9999.0,Variable,1.2,-,N/A,,Clear,0,2013-02-08 16:50:00
7:20 PM,68.0,46.4,46,29.95,-9999.0,Variable,1.2,-,N/A,,Clear,0,2013-02-08 17:20:00
7:50 PM,68.0,46.4,46,29.95,-9999.0,Variable,1.2,-,N/A,,Clear,0,2013-02-08 17:50:00
8:00 PM,67,43,30,,9,SW,1.2,,,,,230,2013-02-08 18:00:00
8:20 PM,68.0,44.6,43,29.95,-9999.0,Variable,1.2,-,N/A,,Clear,0,2013-02-08 18:20:00
8:50 PM,68.0,42.8,40,29.98,-9999.0,Variable,2.3,-,N/A,,Clear,0,2013-02-08 18:50:00
9:20 PM,64.4,50.0,59,29.98,-9999.0,NE,4.6,-,N/A,,Clear,40,2013-02-08 19:20:00
9:50 PM,62.6,50.0,63,29.98,-9999.0,NE,3.5,-,N/A,,Clear,40,2013-02-08 19:50:00
10:20 PM,60.8,50.0,68,29.98,-9999.0,NNE,3.5,-,N/A,,Clear,20,2013-02-08 20:20:00